Dunkirk, NY

8:36 AM EDT on June 22, 2017 (GMT -0400)
Chautauqua County-Dunkirk

Weather History for KDKK - April, 2013

Change the Weather History Date:

Monday, April 22, 2013

  Actual Average Record
Temperature  
Mean Temperature 46 °F -  
Max Temperature 57 °F 58 °F 79 °F (1985)
Min Temperature 36 °F 39 °F 27 °F (1936)
Degree Days  
Heating Degree Days 18    
Moisture  
Dew Point 25 °F    
Average Humidity 40    
Maximum Humidity 57    
Minimum Humidity 29    
Precipitation  
Precipitation 0.00 in - - ()
Sea Level Pressure  
Sea Level Pressure 30.42 in    
Wind  
Wind Speed 10 mph (ESE)    
Max Wind Speed 15 mph    
Max Gust Speed 23 mph    
Visibility 10 miles    
Events      
Averages and records for this station are not official NWS values.
T = Trace of Precipitation, MM = Missing Value Source: NWS Daily Summary

Daily Weather History Graph

Daily Weather History Graph

Search for Another Location

Airport or City:

Trip Planner

Search our weather history database for the weather conditions in past years. The results will help you decide how hot, cold, wet, or windy it might be!

Date:

Astronomy

Apr. 22, 2013 Rise Set
Actual Time 6:24 AM EDT 8:07 PM EDT
Civil Twilight 5:54 AM EDT 8:37 PM EDT
Nautical Twilight 5:18 AM EDT 9:13 PM EDT
Astronomical Twilight 4:39 AM EDT 9:52 PM EDT
Moon 4:50 PM EDT 4:22 AM EDT
Length of Visible Light 14h 42m
Length of Day
13h 42m
Waxing Gibbous, 87% of the Moon is Illuminated
Apr 22
Waxing Gibbous
Apr 25
Full
May 2
Last Quarter
May 9
New
May 18
First Quarter

Hourly Weather History & Observations

Time (EDT) Temp. Windchill Dew Point Humidity Pressure Visibility Wind Dir Wind Speed Gust Speed Precip Events Conditions
12:53 AM 39.0 °F 32.3 °F 24.1 °F 55% 30.53 in 10.0 mi ESE 10.4 mph - N/A   Clear
1:53 AM 39.9 °F 35.1 °F 21.9 °F 49% 30.52 in 10.0 mi SE 6.9 mph - N/A   Clear
2:53 AM 41.0 °F 34.3 °F 21.9 °F 47% 30.50 in 10.0 mi SE 11.5 mph 20.7 mph N/A   Clear
3:53 AM 39.0 °F 32.3 °F 21.9 °F 50% 30.51 in 10.0 mi SE 10.4 mph - N/A   Clear
4:53 AM 39.0 °F 32.8 °F 21.0 °F 49% 30.51 in 10.0 mi ESE 9.2 mph - N/A   Clear
5:53 AM 39.9 °F 33.4 °F 21.0 °F 47% 30.50 in 10.0 mi ESE 10.4 mph - N/A   Clear
6:53 AM 36.0 °F 29.0 °F 21.9 °F 57% 30.50 in 10.0 mi East 9.2 mph - N/A   Clear
7:53 AM 42.1 °F 40.2 °F 23.0 °F 47% 30.49 in 10.0 mi SE 3.5 mph - N/A   Clear
8:53 AM 46.0 °F 41.9 °F 25.0 °F 44% 30.48 in 10.0 mi SSE 8.1 mph 17.3 mph N/A   Clear
9:53 AM 48.9 °F - 25.0 °F 39% 30.47 in 10.0 mi South 11.5 mph 18.4 mph N/A   Clear
10:53 AM 53.1 °F - 25.0 °F 34% 30.47 in 10.0 mi South 13.8 mph 18.4 mph N/A   Clear
11:53 AM 55.9 °F - 26.1 °F 32% 30.45 in 10.0 mi South 11.5 mph - N/A   Clear
12:53 PM 57.0 °F - 27.0 °F 32% 30.43 in 10.0 mi Variable 4.6 mph - N/A   Clear
1:53 PM 55.9 °F - 33.1 °F 42% 30.41 in 10.0 mi North 10.4 mph - N/A   Clear
2:53 PM 55.0 °F - 28.0 °F 35% 30.39 in 10.0 mi NNE 13.8 mph - N/A   Clear
3:53 PM 55.9 °F - 26.1 °F 32% 30.36 in 10.0 mi NNE 13.8 mph - N/A   Clear
4:53 PM 57.0 °F - 26.1 °F 30% 30.35 in 10.0 mi North 12.7 mph - N/A   Clear
5:53 PM 57.9 °F - 27.0 °F 31% 30.32 in 10.0 mi NNE 10.4 mph - N/A   Clear
6:53 PM 57.0 °F - 27.0 °F 32% 30.31 in 10.0 mi NNE 6.9 mph - N/A   Clear
7:53 PM 52.0 °F - 28.0 °F 40% 30.30 in 10.0 mi ENE 4.6 mph - N/A   Clear
8:53 PM 46.9 °F - 28.9 °F 50% 30.31 in 10.0 mi Calm Calm - N/A   Clear
9:53 PM 52.0 °F - 26.1 °F 37% 30.31 in 10.0 mi SSE 6.9 mph - N/A   Clear
10:53 PM 53.1 °F - 21.0 °F 29% 30.30 in 10.0 mi SSE 13.8 mph 21.9 mph N/A   Clear
11:53 PM 51.1 °F - 21.0 °F 31% 30.30 in 10.0 mi South 15.0 mph 23.0 mph N/A   Clear